FW7611 Weather Reports


Display with metric or nautical units.
time (UTC)temp
F
wind
direction
speed
MPH
gust
MPH
rain 1hr
in
rain 24hr
in
rain mn
in
humidity
%
barometer
mb
20260906223049 80 213 1.0 4.0 0.00 0.02 0.02 75 1014.2
20260906221550 80 0 0.0 3.0 0.00 0.02 0.02 75 1014.1
20260906220042 80 0 0.0 0.0 0.00 0.02 0.02 76 1014.2
20260906214541 80 0 0.0 0.0 0.00 0.02 0.02 71 1014.6
20260906213048 81 0 0.0 2.0 0.00 0.02 0.02 69 1014.9
20260906211558 81 0 0.0 0.0 0.00 0.02 0.02 72 1014.7
20260906210047 81 0 0.0 1.0 0.00 0.02 0.02 71 1014.5
20260906204546 81 163 1.0 2.0 0.00 0.02 0.02 67 1014.4
20260906203056 81 0 0.0 2.0 0.00 0.02 0.02 68 1014.5
20260906201542 81 41 0.0 2.0 0.00 0.02 0.02 68 1014.6
20260906200049 81 65 0.0 2.0 0.00 0.02 0.02 71 1014.3
20260906194541 81 15 0.0 2.0 0.00 0.02 0.02 69 1014.4
20260906193101 81 38 1.0 5.0 0.00 0.02 0.02 68 1014.6
20260906191556 82 30 1.0 3.0 0.00 0.02 0.02 69 1015.2
20260906190046 82 24 2.0 6.0 0.00 0.02 0.02 68 1015.3
20260906184546 81 147 0.0 5.0 0.00 0.02 0.02 71 1015.4
20260906183042 82 214 1.0 3.0 0.00 0.02 0.02 69 1015.5
20260906181604 81 21 1.0 5.0 0.00 0.02 0.02 71 1015.5
20260906180043 82 36 1.0 4.0 0.00 0.02 0.02 70 1015.6
20260906174552 81 69 2.0 10.0 0.00 0.02 0.02 72 1015.8
20260906173048 79 14 1.0 9.0 0.00 0.02 0.02 74 1015.8
20260906171602 81 46 2.0 7.0 0.00 0.02 0.02 74 1015.9
20260906170057 80 242 2.0 5.0 0.00 0.02 0.02 75 1016.0
20260906164544 76 34 0.0 3.0 0.00 0.02 0.02 84 1016.2
20260906163047 76 0 0.0 0.0 0.00 0.02 0.02 86 1016.2
20260906161547 76 0 0.0 0.0 0.00 0.02 0.02 85 1016.3
20260906160044 75 0 0.0 0.0 0.00 0.02 0.02 86 1016.3
20260906154551 76 0 0.0 1.0 0.00 0.02 0.02 83 1016.5
20260906153048 75 0 0.0 0.0 0.00 0.02 0.02 87 1016.5
20260906151551 76 0 0.0 2.0 0.00 0.02 0.02 85 1016.3
20260906150047 76 0 0.0 4.0 0.00 0.02 0.02 86 1016.4
20260906144605 75 155 0.0 4.0 0.00 0.02 0.02 86 1016.4
20260906143053 75 54 1.0 5.0 0.00 0.02 0.02 92 1016.3
20260906141543 74 0 0.0 4.0 0.01 0.02 0.02 91 1016.2
20260906140044 73 0 0.0 1.0 0.02 0.02 0.02 92 1016.1
20260906134551 73 0 0.0 2.0 0.02 0.02 0.02 92 1016.0
20260906133046 72 0 1.0 4.0 0.02 0.02 0.02 92 1015.9
20260906131546 72 0 0.0 3.0 0.01 0.01 0.01 92 1015.9
20260906130100 73 22 0.0 2.0 0.00 0.00 0.00 89 1015.9
20260906124546 73 0 0.0 4.0 0.00 0.00 0.00 89 1015.7
20260906123040 73 42 1.0 3.0 0.00 0.00 0.00 90 1015.5
20260906121539 73 35 0.0 3.0 0.00 0.00 0.00 91 1015.6
20260906120045 72 44 1.0 4.0 0.00 0.00 0.00 92 1015.9
20260906114552 71 21 1.0 4.0 0.00 0.00 0.00 93 1015.3
20260906113041 71 0 0.0 0.0 0.00 0.00 0.00 94 1014.8
20260906111541 71 0 0.0 0.0 0.00 0.00 0.00 94 1014.8
20260906110048 70 0 0.0 2.0 0.00 0.00 0.00 94 1014.9
20260906104548 70 0 0.0 2.0 0.00 0.00 0.00 94 1014.7
20260906103041 70 28 0.0 2.0 0.00 0.00 0.00 94 1014.7
20260906101539 70 0 0.0 2.0 0.00 0.00 0.00 94 1014.6
20260906100047 70 0 0.0 0.0 0.00 0.00 0.00 94 1014.3
20260906094558 70 24 1.0 5.0 0.00 0.00 0.00 94 1014.2
20260906093126 70 0 0.0 3.0 0.00 0.00 0.00 94 1014.1
20260906091548 69 0 0.0 2.0 0.00 0.00 0.00 93 1014.0
20260906090043 69 38 0.0 2.0 0.00 0.00 0.00 93 1013.9
20260906084549 69 0 0.0 0.0 0.00 0.00 0.00 92 1013.7
20260906083052 70 0 0.0 0.0 0.00 0.00 0.00 92 1013.7
20260906081548 70 0 0.0 2.0 0.00 0.00 0.00 92 1013.5
20260906080045 70 0 0.0 2.0 0.00 0.00 0.00 91 1013.3
20260906074542 70 0 0.0 2.0 0.00 0.00 0.00 91 1013.3
20260906073041 70 0 0.0 0.0 0.00 0.00 0.00 91 1013.3
20260906071548 70 0 0.0 0.0 0.00 0.00 0.00 91 1013.5
20260906070047 71 0 0.0 0.0 0.00 0.00 0.00 91 1013.7
20260906064541 70 0 0.0 0.0 0.00 0.00 0.00 92 1013.9
20260906063050 71 0 0.0 0.0 0.00 0.00 0.00 92 1014.0
20260906061551 71 0 0.0 0.0 0.00 0.00 0.00 91 1014.0
20260906060048 71 0 0.0 0.0 0.00 0.00 0.00 90 1014.1
20260906054543 72 0 0.0 0.0 0.00 0.00 0.00 89 1014.0
20260906053048 72 0 0.0 0.0 0.00 0.00 0.00 89 1013.9
20260906051558 73 0 0.0 0.0 0.00 0.00 0.00 87 1013.9
20260906050056 73 0 0.0 0.0 0.00 0.00 0.00 88 1014.0
20260906044557 73 0 0.0 0.0 0.00 0.00 0.00 89 1014.1
20260906043048 73 0 0.0 0.0 0.00 0.00 0.00 88 1014.2
20260906041547 73 0 0.0 0.0 0.00 0.00 0.00 88 1014.2
20260906040059 73 0 0.0 0.0 0.00 0.00 0.00 87 1014.3
20260906034551 74 0 0.0 0.0 0.00 0.00 0.00 86 1014.4
20260906033050 74 0 0.0 0.0 0.00 0.00 0.00 86 1014.3
20260906031546 74 0 0.0 0.0 0.00 0.00 0.00 87 1014.3
20260906030043 74 0 0.0 0.0 0.00 0.00 0.00 86 1014.1
20260906024559 75 0 0.0 0.0 0.00 0.00 0.00 85 1014.2
20260906023047 75 0 0.0 1.0 0.00 0.00 0.00 85 1014.2
20260906021547 75 0 0.0 2.0 0.00 0.00 0.00 85 1014.0
20260906020043 76 0 0.0 0.0 0.00 0.00 0.00 83 1014.0
20260906014625 76 0 1.0 2.0 0.00 0.00 0.00 82 1014.1
20260906013052 75 0 0.0 0.0 0.00 0.00 0.00 84 1013.9
20260906011548 75 0 0.0 1.0 0.00 0.00 0.00 84 1013.7
20260906010052 75 0 0.0 0.0 0.00 0.00 0.00 86 1013.5
20260906004547 75 0 0.0 0.0 0.00 0.00 0.00 85 1013.5
20260906003040 75 0 0.0 0.0 0.00 0.00 0.00 85 1013.4
20260906001548 75 0 0.0 0.0 0.00 0.00 0.00 84 1013.3
20260906000047 76 0 0.0 0.0 0.00 0.00 0.00 82 1013.1
20260905234542 77 0 0.0 0.0 0.00 0.00 0.00 82 1013.0
20260905233045 78 0 0.0 0.0 0.00 0.00 0.00 79 1013.1
20260905231543 79 0 0.0 0.0 0.00 0.00 0.00 76 1013.0
20260905230048 79 0 0.0 1.0 0.00 0.00 0.00 73 1012.8
20260905224540 80 0 0.0 2.0 0.00 0.00 0.00 72 1013.0